Temp
79 80 79 79 80 80 80 79 79 79 79 79 78 78 78 80 82 82 82 82 81 80 79 80 79 79 79 77 76 76 75 77 78 86 87 87 87 89 89 89 89 86
80 80 80 81 80 80 80 79 79 79 80 79 80 79 79 79 81 81 81 81 82 82 81 81 80 79 78 76 76 74 75 77 78 86 88 87 87 89 89 89 89 89
80 80 80 80 80 81 81 81 79 79 80 80 81 81 80 80 80 81 81 81 81 82 81 81 79 78 77 77 76 75 75 76 77 82 86 86 88 87 88 91 91 91
80 81 81 81 81 81 81 80 80 80 81 80 81 82 82 82 81 81 80 81 80 80 81 80 79 77 77 77 76 74 75 75 76 78 80 86 87 89 89 90 90 91
83 83 83 82 82 82 82 81 81 81 81 81 81 81 82 81 81 81 80 80 79 79 78 79 78 77 77 77 77 75 76 77 78 78 80 83 86 87 90 90 88 90
84 84 83 83 84 83 83 82 82 82 81 81 81 81 82 81 81 80 80 80 79 79 79 78 79 78 77 76 75 75 77 80 82 82 83 83 86 89 91 90 89 89
83 83 83 83 83 83 83 81 82 82 82 81 81 81 82 81 76 79 79 80 80 79 78 77 77 77 77 77 76 75 76 79 82 82 81 83 84 86 90 90 87 87
84 84 83 83 82 82 81 82 82 81 82 81 80 81 80 81 81 78 79 76 78 80 79 78 77 77 78 77 76 76 78 81 81 79 80 82 83 83 85 89 89 85
84 84 84 83 82 81 80 80 83 82 82 80 80 80 80 80 80 80 79 79 78 79 79 79 78 77 77 76 76 77 78 81 81 80 81 84 84 84 86 87 88 87
86 85 84 83 82 81 80 80 81 81 81 79 77 78 78 78 78 77 76 74 74 74 76 78 78 78 78 77 77 76 77 76 79 79 80 82 84 86 87 87 87 87
80 81 81 82 81 81 81 80 80 79 79 81 79 79 78 77 76 77 74 73 73 74 74 76 78 78 78 77 77 78 77 78 78 79 80 80 82 83 86 87 87 87
76 77 78 80 81 81 82 81 80 80 79 78 77 75 78 78 76 76 77 75 75 75 75 77 79 79 78 78 77 77 77 77 77 78 81 83 84 84 84 86 88 88
75 79 78 80 82 83 84 83 82 81 78 76 75 76 76 76 76 76 77 78 78 78 79 81 80 79 78 78 77 77 77 77 76 76 76 77 76 75 76 77 83 89
80 80 82 82 82 82 82 82 81 80 77 77 77 77 76 76 75 75 76 76 77 79 80 81 79 79 78 78 77 77 76 76 76 75 75 75 76 76 76 76 78 83
82 83 83 83 82 82 81 78 77 76 75 74 76 77 77 78 78 77 76 76 77 77 78 80 79 79 78 78 77 76 76 75 75 75 74 74 74 75 76 76 76 77
81 81 81 82 82 80 78 77 76 76 75 75 75 76 76 78 78 78 77 76 76 77 78 78 78 80 80 78 79 77 76 75 75 75 75 75 75 74 74 75 76 77
80 80 80 79 79 79 78 79 78 76 74 74 75 77 79 77 73 75 77 78 77 77 78 78 79 80 80 74 74 76 78 75 75 75 75 74 74 73 73 75 76 78
79 78 77 77 77 77 77 78 78 76 74 74 76 77 75 75 74 74 74 73 74 75 76 78 79 79 74 71 73 73 77 76 75 75 75 74 74 74 74 75 74 75
77 77 77 77 77 77 77 76 75 76 76 75 75 76 75 73 73 73 73 74 73 72 72 74 77 76 70 70 70 70 71 76 75 75 74 75 75 76 76 75 74 74
77 77 76 77 77 76 75 75 75 75 76 77 75 75 75 73 73 74 73 73 72 72 73 75 75 77 69 68 68 68 68 72 75 74 74 75 76 77 77 77 76 75
77 76 76 76 76 75 75 75 74 74 74 74 74 75 74 74 74 75 75 75 75 76 74 74 75 73 68 66 66 66 67 70 74 75 75 75 76 77 78 78 79 79
77 77 77 76 76 75 75 75 75 74 73 74 75 75 77 77 77 78 77 76 76 74 71 72 75 70 67 66 64 64 66 70 73 75 76 75 75 77 79 78 78 78
78 78 78 77 76 75 74 74 74 74 74 75 74 75 75 75 75 74 73 72 73 71 71 73 74 70 63 63 63 64 67 71 73 74 76 75 73 73 74 75 78 79
78 78 78 78 77 75 75 75 75 76 75 76 74 75 74 75 75 72 72 71 72 72 72 72 72 73 64 62 62 63 68 71 71 70 73 75 74 73 73 73 74 78
78 78 78 78 78 77 76 75 76 76 77 77 76 75 75 75 72 70 71 72 73 73 75 72 72 74 64 60 60 61 66 70 71 71 72 75 76 75 74 74 75 78
78 78 78 77 77 78 78 78 78 78 77 77 76 76 75 71 70 70 70 71 72 73 73 73 72 72 72 62 60 60 62 70 72 72 74 75 75 72 73 73 77 79
MSLP
1011.74 1011.86 1012.02 1012.06 1011.90 1011.74 1011.74 1011.90 1011.98 1012.14 1012.26 1012.30 1012.54 1012.58 1012.58 1012.42 1012.26 1012.38 1012.38 1012.38 1012.42 1012.58 1012.74 1012.82 1012.98 1013.34 1013.54 1013.58 1013.54 1014.06 1014.14 1014.10 1014.50 1013.90 1013.74 1013.94 1014.14 1014.18 1014.30 1014.30 1014.34 1014.38
1011.46 1011.62 1011.70 1011.74 1011.78 1011.78 1011.86 1011.78 1011.86 1012.02 1012.14 1012.22 1012.26 1012.30 1012.34 1012.38 1012.30 1012.26 1012.34 1012.34 1012.30 1012.34 1012.42 1012.62 1012.78 1012.94 1013.22 1013.34 1013.50 1013.94 1014.10 1013.90 1014.14 1013.58 1013.54 1013.82 1013.94 1013.90 1013.98 1013.94 1014.02 1013.86
1011.30 1011.46 1011.58 1011.78 1011.82 1011.82 1011.82 1011.74 1011.82 1011.94 1012.06 1012.10 1012.10 1012.14 1012.30 1012.26 1012.34 1012.18 1012.18 1012.26 1012.38 1012.26 1012.26 1012.38 1012.62 1012.70 1012.94 1013.06 1013.14 1013.50 1013.94 1013.86 1014.02 1013.66 1013.38 1013.58 1013.62 1013.78 1013.70 1013.58 1013.62 1013.66
1011.34 1011.26 1011.34 1011.46 1011.50 1011.62 1011.54 1011.70 1011.78 1011.82 1011.82 1012.02 1012.10 1011.98 1012.02 1012.06 1012.14 1012.18 1012.18 1012.14 1012.30 1012.34 1012.26 1012.34 1012.54 1012.58 1012.78 1012.94 1013.14 1013.50 1013.66 1013.54 1013.06 1013.22 1013.74 1013.34 1013.34 1013.38 1013.42 1013.30 1013.34 1013.34
1010.98 1011.06 1011.10 1011.14 1011.18 1011.14 1011.26 1011.50 1011.70 1011.74 1011.82 1011.78 1011.78 1011.82 1011.90 1011.98 1012.06 1012.14 1012.18 1012.26 1012.30 1012.46 1012.42 1012.42 1012.42 1012.54 1012.70 1012.94 1013.10 1013.50 1013.62 1013.58 1013.30 1013.30 1013.70 1013.70 1013.18 1013.22 1013.10 1013.06 1013.18 1013.26
1010.74 1010.82 1010.94 1011.06 1010.98 1011.06 1011.22 1011.42 1011.46 1011.58 1011.66 1011.74 1011.66 1011.70 1011.74 1011.78 1011.82 1011.94 1012.02 1012.18 1012.22 1012.34 1012.38 1012.34 1012.42 1012.46 1012.62 1012.86 1013.10 1013.22 1013.26 1013.22 1012.94 1012.98 1013.26 1013.38 1013.22 1012.86 1012.82 1012.78 1012.94 1013.06
1010.94 1010.90 1010.98 1010.90 1011.02 1011.02 1011.26 1011.38 1011.38 1011.42 1011.54 1011.50 1011.46 1011.58 1011.46 1011.66 1012.30 1012.14 1012.14 1012.06 1012.14 1012.30 1012.30 1012.34 1012.34 1012.46 1012.50 1012.70 1012.98 1013.18 1013.22 1013.10 1012.78 1012.82 1013.14 1013.18 1013.14 1013.10 1012.66 1012.58 1012.66 1012.82
1010.70 1010.70 1010.78 1010.82 1011.06 1011.14 1011.38 1011.38 1011.46 1011.54 1011.46 1011.50 1011.66 1011.42 1011.38 1011.46 1011.58 1011.90 1012.06 1012.26 1012.26 1012.14 1012.14 1012.22 1012.22 1012.22 1012.42 1012.66 1012.98 1013.06 1012.98 1012.70 1012.70 1012.90 1013.10 1013.06 1013.02 1013.10 1012.86 1012.50 1012.38 1012.70
1010.58 1010.62 1010.58 1010.78 1011.06 1011.26 1011.54 1011.58 1011.26 1011.34 1011.30 1011.66 1011.58 1011.46 1011.26 1011.26 1011.34 1011.50 1011.66 1011.78 1012.06 1012.06 1012.02 1012.06 1012.10 1012.26 1012.30 1012.54 1012.74 1012.70 1012.58 1012.30 1012.26 1012.50 1012.70 1012.66 1012.70 1012.82 1012.78 1012.58 1012.54 1012.50
1010.46 1010.54 1010.66 1010.82 1011.10 1011.22 1011.46 1011.50 1011.38 1011.42 1011.34 1011.46 1011.50 1011.38 1011.26 1011.10 1011.10 1011.26 1011.42 1011.66 1011.70 1012.30 1012.42 1012.02 1011.86 1011.98 1012.14 1012.18 1012.18 1012.18 1012.26 1012.22 1012.18 1012.30 1012.34 1012.38 1012.38 1012.34 1012.38 1012.46 1012.50 1012.50
1011.14 1011.06 1011.06 1010.98 1011.14 1011.14 1011.10 1011.38 1011.46 1011.62 1011.70 1011.30 1011.34 1011.38 1011.34 1011.42 1011.30 1011.10 1011.42 1011.74 1011.70 1011.86 1012.66 1012.42 1011.86 1011.66 1011.74 1011.86 1011.82 1011.70 1011.86 1012.02 1012.10 1012.18 1012.26 1012.38 1012.34 1012.30 1012.10 1012.10 1012.18 1012.26
1011.74 1011.38 1011.22 1010.98 1010.90 1010.78 1010.66 1010.70 1010.86 1011.14 1011.34 1011.74 1011.66 1011.54 1011.54 1011.58 1011.58 1011.38 1011.26 1011.50 1011.50 1011.62 1012.06 1011.98 1011.54 1011.46 1011.58 1011.66 1011.70 1011.66 1011.70 1011.86 1011.94 1012.02 1011.98 1011.94 1011.98 1012.14 1012.26 1012.10 1011.82 1011.78
1011.38 1011.02 1010.94 1010.78 1010.50 1010.30 1010.18 1010.30 1010.50 1010.70 1011.18 1011.70 1012.22 1011.54 1011.54 1011.82 1011.66 1011.66 1011.54 1011.38 1011.34 1011.38 1011.22 1011.02 1011.06 1011.18 1011.42 1011.54 1011.58 1011.62 1011.74 1011.86 1011.98 1012.02 1012.06 1012.06 1011.98 1012.06 1012.46 1012.98 1012.42 1011.38
1010.66 1010.62 1010.46 1010.34 1010.18 1010.10 1010.18 1010.18 1010.34 1010.54 1010.66 1010.62 1010.70 1011.14 1011.26 1011.42 1011.50 1011.46 1011.38 1011.50 1011.38 1011.10 1010.78 1010.66 1010.74 1010.94 1011.14 1011.30 1011.42 1011.54 1011.70 1011.90 1012.02 1012.10 1012.06 1011.90 1011.78 1011.70 1012.10 1012.98 1013.30 1012.14
1010.46 1010.22 1010.02 1009.98 1009.94 1009.86 1010.06 1010.30 1010.30 1010.22 1010.34 1010.46 1010.18 1010.10 1010.38 1010.74 1011.02 1011.10 1011.10 1011.22 1011.26 1011.22 1011.02 1010.70 1010.62 1010.74 1010.82 1011.02 1011.30 1011.46 1011.58 1011.86 1011.98 1012.14 1012.10 1011.98 1011.82 1011.78 1011.90 1012.42 1013.10 1013.14
1010.50 1010.30 1010.14 1010.02 1010.06 1010.26 1010.38 1010.34 1010.22 1010.18 1010.14 1010.26 1010.38 1010.18 1010.10 1010.34 1010.78 1011.10 1011.14 1011.10 1011.18 1011.18 1011.14 1011.14 1010.98 1010.58 1010.54 1010.74 1010.98 1011.26 1011.54 1011.70 1011.82 1011.94 1011.94 1011.86 1011.94 1011.82 1011.74 1011.94 1012.26 1012.58
1010.46 1010.38 1010.22 1010.30 1010.30 1010.34 1010.30 1010.14 1010.10 1010.34 1010.46 1010.26 1009.94 1009.78 1009.70 1010.02 1010.82 1011.34 1011.26 1011.18 1011.26 1011.34 1011.34 1011.06 1010.90 1010.62 1010.42 1010.62 1010.94 1011.02 1011.22 1011.54 1011.74 1011.82 1011.78 1011.86 1011.98 1011.98 1011.94 1011.74 1011.70 1012.02
1010.46 1010.30 1010.34 1010.34 1010.30 1010.38 1010.30 1010.10 1009.90 1009.94 1010.10 1010.22 1010.06 1009.90 1009.82 1009.66 1009.74 1009.98 1010.66 1011.46 1011.70 1011.26 1011.06 1010.90 1010.70 1010.38 1010.34 1010.54 1010.82 1010.98 1011.02 1011.22 1011.54 1011.78 1011.82 1011.90 1011.94 1011.90 1011.78 1011.78 1011.98 1011.98
1010.54 1010.46 1010.34 1010.26 1010.22 1010.14 1010.10 1010.06 1010.02 1009.94 1009.94 1009.98 1009.98 1009.66 1009.62 1009.86 1009.94 1010.02 1010.26 1010.62 1010.86 1010.70 1010.58 1010.50 1010.34 1010.06 1010.30 1010.46 1010.70 1010.74 1010.78 1010.94 1011.18 1011.34 1011.54 1011.54 1011.54 1011.50 1011.42 1011.42 1011.42 1011.42
1010.46 1010.42 1010.26 1010.02 1009.94 1009.98 1009.98 1010.02 1010.06 1010.06 1009.82 1009.70 1009.62 1009.46 1009.54 1009.82 1009.94 1009.90 1009.78 1009.98 1010.58 1011.06 1011.02 1010.66 1010.46 1010.30 1010.38 1010.58 1010.66 1010.42 1010.42 1010.62 1010.74 1010.94 1011.06 1011.14 1011.14 1011.10 1011.02 1010.94 1010.86 1011.10
1010.38 1010.26 1010.18 1009.86 1009.70 1009.74 1009.82 1009.82 1009.90 1009.98 1009.90 1009.78 1009.66 1009.50 1009.46 1009.50 1009.54 1009.54 1009.42 1009.42 1009.50 1009.66 1010.34 1010.50 1010.06 1010.02 1010.18 1010.34 1010.46 1010.38 1010.26 1010.34 1010.38 1010.46 1010.62 1010.82 1010.82 1010.70 1010.58 1010.46 1010.46 1010.58
1010.30 1010.14 1009.98 1009.82 1009.62 1009.50 1009.58 1009.58 1009.54 1009.66 1009.70 1009.42 1009.22 1009.10 1008.98 1008.94 1008.94 1008.90 1009.10 1009.38 1009.50 1009.90 1010.50 1010.82 1010.54 1010.22 1010.02 1010.06 1010.22 1010.38 1010.50 1010.98 1010.74 1010.46 1010.38 1010.50 1010.58 1010.46 1010.26 1010.22 1010.22 1010.22
1010.26 1010.02 1009.90 1009.74 1009.58 1009.46 1009.38 1009.34 1009.38 1009.30 1009.22 1009.02 1009.18 1009.10 1009.14 1009.22 1009.26 1009.42 1009.78 1010.14 1010.06 1010.46 1010.70 1010.46 1010.22 1009.98 1009.90 1009.90 1009.78 1009.70 1010.38 1010.70 1010.82 1010.66 1010.30 1010.06 1010.06 1010.14 1010.26 1010.38 1010.38 1010.22
1010.38 1009.98 1009.78 1009.58 1009.46 1009.50 1009.30 1009.06 1008.90 1008.82 1008.78 1008.62 1008.98 1009.02 1009.10 1009.10 1009.18 1009.46 1009.66 1009.82 1009.70 1009.50 1009.06 1008.66 1008.50 1008.38 1008.74 1009.02 1009.18 1009.38 1010.02 1010.58 1011.06 1011.26 1010.82 1010.30 1010.22 1010.46 1010.58 1010.70 1010.66 1010.26
1010.30 1009.98 1009.62 1009.46 1009.34 1009.10 1009.02 1009.02 1008.82 1008.66 1008.42 1008.30 1008.46 1008.58 1008.74 1008.82 1008.98 1008.90 1008.74 1008.78 1008.82 1008.74 1008.54 1008.62 1008.70 1008.62 1008.74 1009.14 1009.22 1009.38 1009.54 1009.66 1010.06 1010.34 1010.50 1010.02 1009.74 1009.98 1010.22 1010.42 1010.30 1009.50
1010.18 1009.98 1009.62 1009.38 1009.26 1008.98 1008.66 1008.46 1008.26 1008.26 1008.34 1008.38 1008.38 1008.42 1008.62 1008.90 1008.78 1008.54 1008.58 1008.54 1008.42 1008.34 1008.30 1008.26 1008.42 1008.42 1008.46 1008.74 1008.94 1009.30 1009.58 1009.46 1009.66 1009.90 1009.74 1009.54 1009.66 1009.94 1010.18 1010.22 1009.54 1008.90
Wind_Speed
6 5 5 6 6 5 5 6 6 7 6 6 6 6 5 5 6 8 9 8 8 8 8 7 7 7 6 5 4 2 4 5 6 9 7 8 7 10 9 10 10 6
6 6 6 6 5 5 6 6 5 5 5 5 5 6 6 5 7 7 7 8 8 10 9 9 8 7 6 4 4 5 5 4 6 10 7 9 8 10 10 10 10 8
7 7 7 7 7 8 8 6 5 3 4 5 5 5 5 7 7 7 6 7 8 9 9 7 6 6 6 6 6 5 5 5 5 8 7 8 8 7 8 10 8 10
7 7 6 7 7 7 6 5 5 5 5 4 5 5 6 5 7 7 6 7 6 6 8 7 7 6 6 7 5 5 6 7 6 4 8 6 8 9 9 8 9 10
6 6 6 6 6 6 5 5 5 5 5 4 4 6 6 6 6 7 7 6 6 8 7 8 8 6 7 6 6 5 6 6 5 6 9 9 6 8 9 8 8 9
3 3 4 5 5 5 4 5 5 4 4 5 6 5 6 7 6 7 8 8 8 8 9 8 8 7 7 7 7 7 7 8 8 9 9 7 8 9 10 9 8 9
4 4 5 4 5 6 5 5 4 3 3 3 3 4 5 5 5 6 7 7 8 9 8 8 7 8 7 6 7 8 7 7 6 3 5 7 7 9 11 9 7 7
4 4 4 4 5 5 5 5 5 4 4 3 6 4 5 5 5 3 5 5 8 9 7 8 8 7 8 6 7 8 9 8 5 5 8 10 7 8 9 9 8 7
4 4 4 4 4 4 4 5 5 5 4 3 3 5 4 4 4 4 4 4 5 6 8 8 8 7 8 8 9 6 5 6 7 7 8 10 11 10 10 10 10 8
4 3 4 4 3 3 4 4 5 4 3 4 5 6 4 4 4 4 4 2 4 7 8 9 8 8 9 10 10 7 9 6 6 8 9 7 8 11 13 11 12 10
8 8 7 4 4 4 4 2 4 4 5 5 4 6 4 3 4 4 5 5 6 6 9 9 9 8 7 7 7 7 7 7 6 7 8 8 9 10 11 11 12 12
3 4 6 6 5 6 4 5 4 4 1 5 1 6 6 4 4 5 5 7 7 8 11 11 8 6 6 6 6 6 6 8 8 9 9 5 5 8 11 13 13 12
3 3 4 6 5 5 3 3 3 4 3 2 4 6 6 6 6 6 7 8 8 10 11 8 7 6 6 6 6 6 7 6 6 6 5 6 5 4 7 13 16 14
2 2 4 3 4 4 4 3 2 1 4 7 7 5 6 7 8 7 6 6 9 9 8 6 6 6 5 5 5 5 5 5 4 6 8 5 3 4 5 10 16 15
6 5 4 4 4 4 1 3 2 3 3 5 5 6 4 6 5 6 6 7 7 9 9 7 6 6 5 5 6 5 6 8 7 6 7 6 5 5 5 8 13 14
7 6 5 5 5 4 2 1 2 3 4 4 4 4 5 6 6 5 7 7 7 7 7 8 7 6 7 11 10 7 6 6 6 7 7 5 4 5 8 10 10 11
6 6 5 5 5 6 6 4 4 3 4 5 6 7 7 6 5 10 9 7 6 6 8 6 5 7 10 11 12 13 8 5 7 6 5 5 5 5 5 5 5 6
6 6 5 4 5 6 6 5 5 4 4 5 5 4 2 4 7 8 6 5 4 8 10 9 8 9 10 9 12 13 11 7 5 6 6 7 7 8 7 6 6 6
7 8 7 6 5 4 5 6 6 7 6 5 6 5 4 5 4 5 7 7 6 8 8 9 11 9 9 10 11 11 12 11 7 7 8 8 8 8 7 7 7 7
6 7 8 7 5 4 5 6 6 6 6 5 5 6 5 4 6 8 6 5 6 8 9 9 9 8 10 12 13 13 14 12 8 9 9 8 8 7 7 7 7 8
6 6 7 7 6 5 4 6 7 6 6 5 6 6 5 5 6 7 7 7 8 9 7 7 6 10 8 10 13 14 15 11 9 9 8 7 8 8 8 8 8 8
7 7 7 7 7 6 6 6 6 6 6 6 6 6 6 5 6 7 6 5 5 3 3 7 7 6 9 10 12 13 11 7 9 10 9 8 8 9 8 7 7 8
11 10 9 8 7 8 7 6 5 5 6 5 6 6 5 5 7 6 7 8 6 4 3 5 6 5 9 11 12 13 6 7 9 8 7 8 8 8 8 8 8 9
9 12 11 9 8 7 8 7 6 6 5 4 5 6 6 6 3 3 0 3 6 7 11 9 8 10 12 13 13 11 7 5 5 8 11 10 8 8 8 9 12 19
8 10 12 10 10 9 7 7 7 7 6 5 5 5 5 2 2 4 7 6 8 8 12 9 5 7 10 10 11 12 11 11 10 10 10 11 8 8 9 11 12 14
9 10 11 11 10 10 9 8 7 7 7 5 4 4 3 2 4 7 7 7 5 5 6 6 7 7 8 11 13 12 15 10 9 10 10 10 4 4 7 7 10 8
Wind_Direction
226 223 227 232 237 242 234 211 198 198 198 199 195 195 218 219 210 222 225 216 210 197 193 191 176 169 171 168 184 178 221 233 272 253 200 214 217 225 221 215 213 213
219 223 224 234 245 247 246 237 214 206 202 207 212 193 200 216 221 218 219 220 219 214 196 192 186 166 158 169 165 185 222 217 248 253 211 213 214 222 226 222 218 219
214 210 219 223 234 243 247 244 234 214 220 221 217 214 203 209 215 215 221 213 219 219 209 189 185 154 164 179 186 182 222 210 245 274 241 208 219 222 225 230 227 222
213 220 208 227 234 240 236 238 239 234 234 230 226 222 216 209 206 210 212 214 212 213 211 194 192 161 176 186 185 195 219 225 215 246 279 239 219 226 224 229 228 225
216 216 219 220 227 229 225 234 232 233 238 239 236 222 214 212 204 208 209 208 213 208 200 198 196 174 184 183 186 196 212 235 222 224 245 249 222 223 230 228 230 237
223 233 236 244 247 244 235 232 241 241 241 252 245 228 226 215 209 207 209 212 210 211 201 195 196 188 191 188 193 205 209 221 220 218 230 237 236 226 226 229 230 231
234 244 246 246 250 252 257 259 253 248 270 253 264 251 236 221 229 222 223 218 213 211 201 192 184 190 195 199 198 202 216 236 240 206 241 251 237 237 235 234 230 231
251 236 239 241 242 242 235 255 264 268 245 231 256 234 217 230 230 232 218 221 233 215 203 201 193 179 184 197 218 215 208 214 201 221 233 233 235 235 241 246 235 221
238 250 250 243 248 254 285 262 230 232 223 259 236 245 209 213 228 222 232 220 243 242 211 208 196 189 188 193 216 220 214 191 190 213 237 234 227 233 234 240 246 228
320 293 249 261 264 275 232 242 268 271 206 210 232 251 213 215 199 198 230 199 199 250 248 214 193 194 190 197 203 208 222 211 194 208 225 241 241 234 233 232 234 243
7 345 330 299 276 245 225 257 261 265 266 222 213 260 240 225 242 197 202 211 217 208 239 238 215 197 197 197 203 207 206 209 212 227 232 228 242 252 248 230 229 232
22 315 305 302 274 256 247 199 196 217 237 336 76 258 276 270 231 233 218 212 213 210 226 227 215 195 201 206 207 217 211 208 212 225 241 249 244 246 254 251 235 229
176 283 274 281 280 292 280 240 211 160 139 250 278 231 246 257 257 250 249 252 231 229 226 212 197 199 197 199 209 216 223 220 215 226 247 258 258 276 305 300 273 243
61 268 267 276 299 288 282 314 319 50 151 198 191 212 214 223 238 234 230 237 257 250 239 220 194 194 196 204 215 219 225 239 216 224 229 217 208 236 257 265 266 267
341 320 302 297 287 289 57 78 113 190 217 240 209 189 210 250 238 242 246 242 239 254 255 237 211 201 195 196 208 216 222 229 227 223 232 231 217 225 229 257 277 286
335 322 317 320 321 336 35 214 222 238 227 211 225 217 201 233 275 256 243 247 247 250 253 253 249 234 205 197 204 204 200 219 223 228 233 239 227 219 226 226 243 270
333 325 319 312 318 314 305 291 252 211 229 227 219 220 200 162 202 263 264 255 254 256 256 251 250 246 236 197 205 211 209 209 224 227 224 234 233 239 241 232 223 228
314 300 296 302 310 303 297 295 284 238 243 257 259 242 182 207 192 208 234 283 297 282 269 259 248 250 242 208 205 214 217 213 219 238 240 240 229 228 233 240 239 222
313 311 309 307 308 288 280 278 280 278 259 247 252 240 212 231 231 211 211 201 206 247 260 264 261 236 236 208 200 202 213 216 221 225 235 238 234 231 226 222 229 241
301 304 302 300 287 272 267 282 284 282 290 281 252 241 233 225 241 234 215 196 198 218 242 250 250 263 223 210 209 209 212 214 217 221 227 234 239 236 226 226 226 235
292 287 296 296 294 285 279 298 302 299 288 279 275 262 247 249 242 235 211 206 214 208 210 232 237 236 235 220 220 217 219 211 220 222 217 220 238 248 237 228 224 228
289 292 289 293 296 294 293 292 296 292 284 276 269 273 269 250 253 260 260 253 248 197 160 267 296 256 244 242 231 231 229 245 252 240 233 232 228 237 243 235 224 234
311 300 290 282 287 298 299 293 288 284 282 271 267 262 261 280 296 317 347 330 327 43 353 265 262 257 252 253 258 252 216 216 239 260 264 252 252 258 268 276 259 230
300 301 303 294 280 273 285 294 289 289 267 256 278 287 291 299 326 32 269 218 250 205 201 196 209 210 212 233 238 239 212 223 241 253 256 251 225 222 239 249 257 245
297 295 299 303 297 285 274 273 282 283 286 279 274 285 287 312 93 252 243 219 226 234 207 209 222 226 205 209 222 216 197 211 213 226 244 244 234 218 200 214 222 227
293 294 294 297 300 298 288 283 286 285 280 278 269 273 290 108 229 251 259 251 227 219 220 203 202 224 225 209 217 210 200 209 210 228 234 239 261 315 303 286 261 246